User: anonymous   Login
Location: NJAA Observatory
(40.6819°N, 74.8979°W)
Time: 20:21:27
(UTC-04:00)
Language:

Landsat 5 - Orbit

View from above orbital plane
View from above orbital plane
View from above satellite
View from above satellite

Ground track
Ground track

The orbit data is extracted from the following two-line orbital elements,

1 14780U 84021A   15114.20063345  .00003944  00000-0  38220-3 0  9998
2 14780 098.0291 201.6581 0092332 231.8303 157.6293 14.90140388658913
Epoch (UTC): 24 April 2015 04:48:54
Eccentricity: 0.0092332
inclination: 98.0291°
perigee height: 533 km
apogee height: 662 km
right ascension of ascending node: 201.6581°
argument of perigee: 231.8303°
revolutions per day: 14.90140388
mean anomaly at epoch: 157.6293°
orbit number at epoch: 65891

The dashed part of the orbit path shows where the satellite is in the earth's shadow,  

DLR